Time,TemperatureF,DewpointF,PressureIn,WindDirection,WindDirectionDegrees,WindSpeedMPH,WindSpeedGustMPH,Humidity,HourlyPrecipIn,Conditions,Clouds,dailyrainin,SolarRadiationWatts/m^2,SoftwareType,DateUTC
2013-03-12 00:22:00,20.0,17.0,-100.00,NW,308,4.0,9.0,89,0.00,,,0.00,1.000000,,2013-03-12 04:22:00,
2013-03-12 00:32:00,20.0,17.0,-100.00,NW,308,4.0,9.0,89,0.00,,,0.00,1.000000,,2013-03-12 04:32:00,
2013-03-12 00:43:00,20.0,17.0,-100.00,NW,308,4.0,9.0,89,0.00,,,0.00,1.000000,,2013-03-12 04:43:00,
2013-03-12 00:52:00,20.0,17.0,-100.00,NW,308,4.0,9.0,89,0.00,,,0.00,1.000000,,2013-03-12 04:52:00,
2013-03-12 01:22:00,19.0,16.0,-100.00,NW,310,5.0,11.0,89,0.00,,,0.00,1.000000,,2013-03-12 05:22:00,
2013-03-12 01:32:00,19.0,16.0,-100.00,NW,310,5.0,11.0,89,0.00,,,0.00,1.000000,,2013-03-12 05:32:00,
2013-03-12 01:42:00,19.0,16.0,-100.00,NW,310,5.0,11.0,89,0.00,,,0.00,1.000000,,2013-03-12 05:42:00,
2013-03-12 01:52:00,19.0,16.0,-100.00,NW,310,5.0,11.0,89,0.00,,,0.00,1.000000,,2013-03-12 05:52:00,
2013-03-12 02:22:00,19.0,16.0,-100.00,NW,307,4.0,12.0,89,0.00,,,0.00,1.000000,,2013-03-12 06:22:00,
2013-03-12 02:32:00,19.0,16.0,-100.00,NW,307,4.0,12.0,89,0.00,,,0.00,1.000000,,2013-03-12 06:32:00,
2013-03-12 02:42:00,19.0,16.0,-100.00,NW,307,4.0,12.0,89,0.00,,,0.00,1.000000,,2013-03-12 06:42:00,
2013-03-12 02:52:00,19.0,16.0,-100.00,NW,307,4.0,12.0,89,0.00,,,0.00,1.000000,,2013-03-12 06:52:00,
2013-03-12 03:22:00,19.0,16.0,-100.00,WNW,302,4.0,9.0,89,0.00,,,0.00,1.000000,,2013-03-12 07:22:00,
2013-03-12 03:32:00,19.0,16.0,-100.00,WNW,302,4.0,9.0,89,0.00,,,0.00,1.000000,,2013-03-12 07:32:00,
2013-03-12 03:42:00,19.0,16.0,-100.00,WNW,302,4.0,9.0,89,0.00,,,0.00,1.000000,,2013-03-12 07:42:00,
2013-03-12 03:52:00,19.0,16.0,-100.00,WNW,302,4.0,9.0,89,0.00,,,0.00,1.000000,,2013-03-12 07:52:00,
2013-03-12 04:22:00,19.0,16.0,-100.00,NW,312,3.0,9.0,89,0.00,,,0.00,1.000000,,2013-03-12 08:22:00,
2013-03-12 04:33:00,19.0,16.0,-100.00,NW,312,3.0,9.0,89,0.00,,,0.00,1.000000,,2013-03-12 08:33:00,
2013-03-12 04:42:00,19.0,16.0,-100.00,NW,312,3.0,9.0,89,0.00,,,0.00,1.000000,,2013-03-12 08:42:00,
2013-03-12 04:52:00,19.0,16.0,-100.00,NW,312,3.0,9.0,89,0.00,,,0.00,1.000000,,2013-03-12 08:52:00,
2013-03-12 05:22:00,18.0,15.0,-100.00,NW,311,4.0,9.0,88,0.00,,,-99.99,1.000000,,2013-03-12 09:22:00,
2013-03-12 05:32:00,18.0,15.0,-100.00,NW,311,4.0,9.0,88,0.00,,,-99.99,1.000000,,2013-03-12 09:32:00,
2013-03-12 05:42:00,18.0,15.0,-100.00,NW,311,4.0,9.0,88,0.00,,,-99.99,1.000000,,2013-03-12 09:42:00,
2013-03-12 05:52:00,18.0,15.0,-100.00,NW,311,4.0,9.0,88,0.00,,,-99.99,1.000000,,2013-03-12 09:52:00,
2013-03-12 06:22:00,17.0,14.0,-100.00,NW,318,3.0,9.0,87,0.00,,,0.00,1.000000,,2013-03-12 10:22:00,
2013-03-12 06:32:00,17.0,14.0,-100.00,NW,318,3.0,9.0,87,0.00,,,0.00,1.000000,,2013-03-12 10:32:00,
2013-03-12 06:42:00,17.0,14.0,-100.00,NW,318,3.0,9.0,87,0.00,,,0.00,1.000000,,2013-03-12 10:42:00,
2013-03-12 06:52:00,17.0,14.0,-100.00,NW,318,3.0,9.0,87,0.00,,,0.00,1.000000,,2013-03-12 10:52:00,
2013-03-12 07:22:00,17.0,14.0,-100.00,NW,318,3.0,7.0,87,0.00,,,0.00,1.000000,,2013-03-12 11:22:00,
2013-03-12 07:32:00,17.0,14.0,-100.00,NW,318,3.0,7.0,87,0.00,,,0.00,1.000000,,2013-03-12 11:32:00,
2013-03-12 07:42:00,17.0,14.0,-100.00,NW,318,3.0,7.0,87,0.00,,,0.00,1.000000,,2013-03-12 11:42:00,
2013-03-12 07:52:00,17.0,14.0,-100.00,NW,318,3.0,7.0,87,0.00,,,0.00,1.000000,,2013-03-12 11:52:00,
2013-03-12 08:22:00,16.0,13.0,-100.00,NW,311,3.0,8.0,87,0.00,,,0.00,1.000000,,2013-03-12 12:22:00,
2013-03-12 08:32:00,16.0,13.0,-100.00,NW,311,3.0,8.0,87,0.00,,,0.00,1.000000,,2013-03-12 12:32:00,
2013-03-12 08:42:00,16.0,13.0,-100.00,NW,311,3.0,8.0,87,0.00,,,0.00,1.000000,,2013-03-12 12:42:00,
2013-03-12 08:52:00,16.0,13.0,-100.00,NW,311,3.0,8.0,87,0.00,,,0.00,1.000000,,2013-03-12 12:52:00,
2013-03-12 09:22:00,16.0,13.0,-100.00,NW,313,3.0,7.0,86,0.00,,,0.00,3.000000,,2013-03-12 13:22:00,
2013-03-12 09:32:00,16.0,13.0,-100.00,NW,313,3.0,7.0,86,0.00,,,0.00,3.000000,,2013-03-12 13:32:00,
2013-03-12 09:42:00,16.0,13.0,-100.00,NW,313,3.0,7.0,86,0.00,,,0.00,3.000000,,2013-03-12 13:42:00,
2013-03-12 09:52:00,16.0,13.0,-100.00,NW,313,3.0,7.0,86,0.00,,,0.00,3.000000,,2013-03-12 13:52:00,
2013-03-12 10:22:00,17.0,13.0,-100.00,NNW,333,4.0,9.0,83,0.00,,,0.00,26.000000,,2013-03-12 14:22:00,
2013-03-12 10:33:00,17.0,13.0,-100.00,NNW,333,4.0,9.0,83,0.00,,,0.00,26.000000,,2013-03-12 14:33:00,
2013-03-12 10:42:00,17.0,13.0,-100.00,NNW,333,4.0,9.0,83,0.00,,,0.00,26.000000,,2013-03-12 14:42:00,
2013-03-12 10:52:00,17.0,13.0,-100.00,NNW,333,4.0,9.0,83,0.00,,,0.00,26.000000,,2013-03-12 14:52:00,
2013-03-12 11:22:00,17.0,12.0,-100.00,NNW,348,4.0,9.0,81,0.00,,,0.00,42.000000,,2013-03-12 15:22:00,
2013-03-12 11:32:00,17.0,12.0,-100.00,NNW,348,4.0,9.0,81,0.00,,,0.00,42.000000,,2013-03-12 15:32:00,
2013-03-12 11:42:00,17.0,12.0,-100.00,NNW,348,4.0,9.0,81,0.00,,,0.00,42.000000,,2013-03-12 15:42:00,
2013-03-12 11:52:00,17.0,12.0,-100.00,NNW,348,4.0,9.0,81,0.00,,,0.00,42.000000,,2013-03-12 15:52:00,
2013-03-12 12:22:00,19.0,14.0,-100.00,NW,325,4.0,9.0,80,0.00,,,0.00,66.000000,,2013-03-12 16:22:00,
2013-03-12 12:33:00,19.0,14.0,-100.00,NW,325,4.0,9.0,80,0.00,,,0.00,66.000000,,2013-03-12 16:33:00,
2013-03-12 12:43:00,19.0,14.0,-100.00,NW,325,4.0,9.0,80,0.00,,,0.00,66.000000,,2013-03-12 16:43:00,
2013-03-12 12:52:00,19.0,14.0,-100.00,NW,325,4.0,9.0,80,0.00,,,0.00,66.000000,,2013-03-12 16:52:00,
2013-03-12 13:22:00,20.0,12.0,-100.00,NW,314,6.0,12.0,72,0.00,,,0.00,123.000000,,2013-03-12 17:22:00,
2013-03-12 13:34:00,20.0,12.0,-100.00,NW,314,6.0,12.0,72,0.00,,,0.00,123.000000,,2013-03-12 17:34:00,
2013-03-12 13:43:00,20.0,12.0,-100.00,NW,314,6.0,12.0,72,0.00,,,0.00,123.000000,,2013-03-12 17:43:00,
2013-03-12 13:53:00,20.0,12.0,-100.00,NW,314,6.0,12.0,72,0.00,,,0.00,123.000000,,2013-03-12 17:53:00,
2013-03-12 14:23:00,20.0,12.0,-100.00,NW,322,5.0,13.0,70,0.00,,,0.00,141.000000,,2013-03-12 18:23:00,
2013-03-12 14:33:00,20.0,12.0,-100.00,NW,322,5.0,13.0,70,0.00,,,0.00,141.000000,,2013-03-12 18:33:00,
2013-03-12 14:42:00,20.0,12.0,-100.00,NW,322,5.0,13.0,70,0.00,,,0.00,141.000000,,2013-03-12 18:42:00,
2013-03-12 14:53:00,20.0,12.0,-100.00,NW,322,5.0,13.0,70,0.00,,,0.00,141.000000,,2013-03-12 18:53:00,
2013-03-12 15:23:00,19.0,12.0,-100.00,NNW,328,6.0,14.0,73,0.00,,,0.00,137.000000,,2013-03-12 19:23:00,
2013-03-12 15:33:00,19.0,12.0,-100.00,NNW,328,6.0,14.0,73,0.00,,,0.00,137.000000,,2013-03-12 19:33:00,
2013-03-12 15:43:00,19.0,12.0,-100.00,NNW,328,6.0,14.0,73,0.00,,,0.00,137.000000,,2013-03-12 19:43:00,
2013-03-12 15:53:00,19.0,12.0,-100.00,NNW,328,6.0,14.0,73,0.00,,,0.00,137.000000,,2013-03-12 19:53:00,
2013-03-12 16:23:00,19.0,11.0,-100.00,NW,321,6.0,13.0,72,0.00,,,0.00,176.000000,,2013-03-12 20:23:00,
2013-03-12 16:32:00,19.0,11.0,-100.00,NW,321,6.0,13.0,72,0.00,,,0.00,176.000000,,2013-03-12 20:32:00,
2013-03-12 16:42:00,19.0,11.0,-100.00,NW,321,6.0,13.0,72,0.00,,,0.00,176.000000,,2013-03-12 20:42:00,
2013-03-12 16:52:00,19.0,11.0,-100.00,NW,321,6.0,13.0,72,0.00,,,0.00,176.000000,,2013-03-12 20:52:00,
2013-03-12 17:22:00,18.0,11.0,-100.00,NW,309,5.0,14.0,75,0.00,,,0.00,134.000000,,2013-03-12 21:22:00,
2013-03-12 17:33:00,18.0,11.0,-100.00,NW,309,5.0,14.0,75,0.00,,,0.00,134.000000,,2013-03-12 21:33:00,
2013-03-12 17:43:00,18.0,11.0,-100.00,NW,309,5.0,14.0,75,0.00,,,0.00,134.000000,,2013-03-12 21:43:00,
2013-03-12 17:52:00,18.0,11.0,-100.00,NW,309,5.0,14.0,75,0.00,,,0.00,134.000000,,2013-03-12 21:52:00,
2013-03-12 18:22:00,17.0,11.0,-100.00,NNW,330,7.0,15.0,77,0.00,,,0.00,139.000000,,2013-03-12 22:22:00,
2013-03-12 18:33:00,17.0,11.0,-100.00,NNW,330,7.0,15.0,77,0.00,,,0.00,139.000000,,2013-03-12 22:33:00,
2013-03-12 18:43:00,17.0,11.0,-100.00,NNW,330,7.0,15.0,77,0.00,,,0.00,139.000000,,2013-03-12 22:43:00,
2013-03-12 18:52:00,17.0,11.0,-100.00,NNW,330,7.0,15.0,77,0.00,,,0.00,139.000000,,2013-03-12 22:52:00,
2013-03-12 19:22:00,17.0,13.0,-100.00,North,1,4.0,13.0,84,0.00,,,0.00,69.000000,,2013-03-12 23:22:00,
2013-03-12 19:34:00,17.0,13.0,-100.00,North,1,4.0,13.0,84,0.00,,,0.00,69.000000,,2013-03-12 23:34:00,
2013-03-12 19:43:00,17.0,13.0,-100.00,North,1,4.0,13.0,84,0.00,,,0.00,69.000000,,2013-03-12 23:43:00,
2013-03-12 19:52:00,17.0,13.0,-100.00,North,1,4.0,13.0,84,0.00,,,0.00,69.000000,,2013-03-12 23:52:00,
2013-03-12 20:23:00,16.0,13.0,-100.00,NNW,347,3.0,9.0,86,0.00,,,0.00,10.000000,,2013-03-13 00:23:00,
2013-03-12 20:33:00,16.0,13.0,-100.00,NNW,347,3.0,9.0,86,0.00,,,0.00,10.000000,,2013-03-13 00:33:00,
2013-03-12 20:42:00,16.0,13.0,-100.00,NNW,347,3.0,9.0,86,0.00,,,0.00,10.000000,,2013-03-13 00:42:00,
2013-03-12 20:52:00,16.0,13.0,-100.00,NNW,347,3.0,9.0,86,0.00,,,0.00,10.000000,,2013-03-13 00:52:00,
2013-03-12 21:22:00,17.0,14.0,-100.00,NNW,338,7.0,13.0,87,0.00,,,0.00,1.000000,,2013-03-13 01:22:00,
2013-03-12 21:32:00,17.0,14.0,-100.00,NNW,338,7.0,13.0,87,0.00,,,0.00,1.000000,,2013-03-13 01:32:00,
2013-03-12 21:42:00,17.0,14.0,-100.00,NNW,338,7.0,13.0,87,0.00,,,0.00,1.000000,,2013-03-13 01:42:00,
2013-03-12 21:52:00,17.0,14.0,-100.00,NNW,338,7.0,13.0,87,0.00,,,0.00,1.000000,,2013-03-13 01:52:00,
2013-03-12 22:22:00,17.0,13.0,-100.00,NNW,348,5.0,11.0,85,0.00,,,0.00,1.000000,,2013-03-13 02:22:00,
2013-03-12 22:32:00,17.0,13.0,-100.00,NNW,348,5.0,11.0,85,0.00,,,0.00,1.000000,,2013-03-13 02:32:00,
2013-03-12 22:43:00,17.0,13.0,-100.00,NNW,348,5.0,11.0,85,0.00,,,0.00,1.000000,,2013-03-13 02:43:00,
2013-03-12 22:52:00,17.0,13.0,-100.00,NNW,348,5.0,11.0,85,0.00,,,0.00,1.000000,,2013-03-13 02:52:00,
2013-03-12 23:22:00,16.0,12.0,-100.00,North,4,6.0,13.0,85,0.00,,,0.00,1.000000,,2013-03-13 03:22:00,
2013-03-12 23:32:00,16.0,12.0,-100.00,North,4,6.0,13.0,85,0.00,,,0.00,1.000000,,2013-03-13 03:32:00,
2013-03-12 23:42:00,16.0,12.0,-100.00,North,4,6.0,13.0,85,0.00,,,0.00,1.000000,,2013-03-13 03:42:00,
2013-03-12 23:52:00,16.0,12.0,-100.00,North,4,6.0,13.0,85,0.00,,,0.00,1.000000,,2013-03-13 03:52:00,